Location: Unspecified
(41.5516°N, 88.1098°W)
Time: 13:09:19
(UTC-05:00)

Cosmos 1674 - Visible Passes

Search period start: 26 September 2017 00:00
Search period end: 06 October 2017 00:00
Orbit: 497 x 523 km, 82.5° (Epoch: 26 September)

Date Brightness Start Highest point End Pass type
(mag) Time Alt. Az. Time Alt. Az. Time Alt. Az.
26 Sep 4.5 19:23:11 10° NE 19:24:51 13° ENE 19:25:44 12° E visible
26 Sep 3.8 20:57:09 10° NNW 21:00:39 40° W 21:00:39 40° W visible
27 Sep 3.3 20:40:18 10° NNW 20:43:57 53° W 20:44:38 45° SW visible
28 Sep 2.8 20:23:30 10° NNW 20:27:13 71° W 20:28:43 34° S visible
29 Sep 2.5 20:06:44 10° N 20:10:28 88° E 20:12:59 20° S visible
30 Sep 2.5 19:50:00 10° N 19:53:43 66° E 19:57:25 10° SSE visible
01 Oct 2.8 19:33:18 10° N 19:36:57 50° E 19:40:34 10° SSE visible
02 Oct 3.1 19:16:39 10° N 19:20:10 38° ENE 19:23:40 10° SSE visible
02 Oct 5.9 20:53:43 10° WNW 20:55:22 13° W 20:57:01 10° WSW visible
03 Oct 3.5 19:00:02 10° NNE 19:03:22 30° ENE 19:06:40 10° SE visible
03 Oct 5.7 20:36:21 10° NW 20:38:42 16° W 20:41:02 10° SW visible
04 Oct 5.4 20:19:12 10° NW 20:22:01 20° W 20:24:49 10° SW visible
05 Oct 5.0 20:02:10 10° NNW 20:05:19 26° W 20:08:27 10° SSW visible
